Вернуться в каталог

STARLINK-6374

АктивенСвязьVLEO
NORAD 57338·PAYLOAD·🇺🇸 United States

Запущен Jul 16, 2023 с Cape Canaveral Space Force Station

Loading…

Ближайшие Пролёты (ближайшие 24 часа)

TLE

СвежийSource: CelesTrak SupGP

Эпоха: Sep 14, 2026, 21:17 UTC

1 57338C 23099L   26257.88729167  .00018808  00000+0  68136-3 0  2577
2 57338  42.9993 264.1174 0001248 262.7788 302.1931 15.27563370    13

Отслеживайте STARLINK-6374 в реальном времени с AllMySat

Download on the App Store